Back to catalog

STARLINK-30975

AliveCommunicationsVLEO
NORAD 58446·PAYLOAD·🇺🇸 United States

Launched Nov 28, 2023 from Cape Canaveral Space Force Station

Loading…

Next Passes (next 24 hours)

TLE

FreshSource: CelesTrak SupGP

Epoch: Sep 15, 2026, 02:43 UTC

1 58446C 23183K   26258.11368056 -.00023482  00000+0 -85029-3 0  2582
2 58446  43.0040  51.6388 0001802 272.8752 194.0356 15.27598074    12

Track STARLINK-30975 in real time with AllMySat

Download on the App Store